OBJECT CX, 66759

Orbit data source: Space-Track

You're viewing an Uncataloged Satellite

Recently launched and/or uncataloged satellites may have evolving metadata. Metadata may include but not limited to: Owner, Maufacturer, Bus, Motor, and Mission.

OBJECT CX, 66759 is a satellite in SSO that was launched on Fri, 28 Nov 2025 UTC via an FALCON 9 launch vehicle from the Air Force Western Test Range (AFWTR). Unknown objects in Earth's orbit typically refer to objects detected orbiting the Earth but have not yet been identified or cataloged. These objects could be anything from previously untracked satellites, spent rocket stages, debris from satellite collisions, or even natural meteoroids temporarily captured by Earth's gravity.

Loading next visibility...
Identifier
66759, 2025-276CX
Orbit
SSO
Country
Flag of TBDTBD
Related business
None
Manufacturer
Unknown
Mission
Operational Commercial Weather
Bus & Motor
Unknown
Mass
Unknown
Launch date (UTC)
2025-11-28 (6 months ago)
Launch vehicle
FALCON 9
Launch site
Air Force Western Test Range (AFWTR)
Object type
Unknown
Shape & HBR
Box, 0.1 m
Radar Cross Section
0.015 m²

Expand to show TLE details & history
Last TLE update: 7 hours ago

TLE from 7 hours ago
0 OBJECT CX
1 66759U 25276CX  26144.91948640  .00005443  00000-0  25130-3 0  9993
2 66759  97.4172 219.0333 0002260  65.5595 294.5876 15.20621970 26902
Epoch: 2026-05-24T22:04Z
TLE epoch observation values (Epoch: 2026-05-24T22:04:03.624Z)
Latitude
-0.00006°
Longitude
5.50349°
Altitude
506.407 km
Speed
7.611 km/s
True Right ascension
14h 36m 07s
True Declination
0° 00' 00"
Sunlit
Object was in full shadow at epoch
Visualization orbit readout
Latitude
Unknown
Longitude
Unknown
Altitude
Unknown
Speed
Unknown
Apparent Right ascension
Unknown
Apparent Declination
Unknown
Sunlit
N/A
Visualization observer readout
Local Sidereal Time
14:31:41
Azimuth
Unknown
Elevation
Unknown
Doppler factor
Unknown
Orbital elements
Apogee altitude
502.483 km
Perigee altitude
499.374 km
Semi-major axis
6,879.066 km
Eccentricity
0.00023
Inclination
97.4172°
RAAN
219.0333°
Arg. of periapsis
65.5595°
True anomaly
294.56405°
Mean anomaly
294.5876°
Eccentric anomaly
294.57582°
Mean motion
3.80407 °/min
Orbital period
94.64 mins
BSTAR
0.0002513
Loading maneuver chart data...
Computing Atmospheric mass density...
Loading historical data...
Loading historical data...
Loading historical data...
Loading historical data...
Loading historical data...
Loading historical data...
Loading historical data...

Documentation

Showing up to 5 results
|